Printer-friendly version

IAU Minor Planet Center

Minor Planet Center

MPEC 2006-S09 : 2006 SB

The following Minor Planet Electronic Circular may be linked-to from your own Web pages, but must not otherwise be redistributed electronically.


Read MPEC 2006-S08 Read MPEC 2006-S10


M.P.E.C. 2006-S09                                Issued 2006 Sept. 17, 22:21 UT

     The Minor Planet Electronic Circulars contain information on unusual
         minor planets and routine data on comets.  They are published
   on behalf of Commission 20 of the International Astronomical Union by the
          Minor Planet Center, Smithsonian Astrophysical Observatory,
                          Cambridge, MA 02138, U.S.A.

                  Supported in part by the Brinson Foundation
                  Supported in part by the TABASGO Foundation
             Prepared using the Tamkin Foundation Computer Network

                              MPC@CFA.HARVARD.EDU
          URL http://cfa-www.harvard.edu/iau/mpc.html  ISSN 1523-6714

                                    2006 SB

Observations:
     K06S00B* C2006 09 16.24220 22 47 33.39 +27 34 01.0          18.5 V ES009703
     K06S00B  C2006 09 16.24865 22 47 38.58 +27 31 12.0          18.2 V ES009703
     K06S00B  C2006 09 16.25510 22 47 43.87 +27 28 21.0          18.5 V ES009703
     K06S00B  C2006 09 16.38239 22 49 31.08 +26 29 30.3          18.2 V ES009703
     K06S00B  C2006 09 16.38717 22 49 35.32 +26 27 11.1          18.3 V ES009703
     K06S00B  C2006 09 16.39192 22 49 39.57 +26 24 52.2          18.2 V ES009703
     K06S00B  C2006 09 16.39675 22 49 44.04 +26 22 31.1          18.0 V ES009703
     K06S00B  C2006 09 16.45593 22 50 39.87 +25 52 59.8          18.1 V ES009703
     K06S00B  C2006 09 16.45748 22 50 41.38 +25 52 13.5          18.3 V ES009703
     K06S00B  C2006 09 16.45908 22 50 42.97 +25 51 24.5          18.4 V ES009703
     K06S00B  C2006 09 16.46065 22 50 44.52 +25 50 36.4          18.5 V ES009703
     K06S00B  C2006 09 16.94294 23 00 42.36 +21 19 20.3          18.1 V ES009941
     K06S00B  C2006 09 16.94334 23 00 42.81 +21 19 05.0          17.8 V ES009941
     K06S00B  C2006 09 16.94413 23 00 43.61 +21 18 35.2          17.7 V ES009941
     K06S00B  C2006 09 16.94465 23 00 44.20 +21 18 15.1          17.8 V ES009941
     K06S00B  C2006 09 17.01943 23 02 41.40 +20 27 44.0          17.6 R ES009932
     K06S00B  C2006 09 17.02558 23 02 48.93 +20 23 40.8          17.5 R ES009932
     K06S00B  C2006 09 17.02958 23 02 53.86 +20 21 01.5          17.7 R ES009932
     K06S00B  C2006 09 17.03458 23 03 00.01 +20 17 41.7          17.8 R ES009932
     K06S00B  C2006 09 17.03893 23 03 05.35 +20 14 47.2          17.7 R ES009932
     K06S00B  C2006 09 17.12880 23 05 13.30 +19 13 21.3          17.5 R ES009651
     K06S00B  C2006 09 17.13024 23 05 15.15 +19 12 20.6          17.9 R ES009651
     K06S00B  C2006 09 17.13072 23 05 15.74 +19 12 00.5          17.6 R ES009651
     K06S00B 5C2006 09 17.20973 23 06 58.32 +18 14 13.6          17.5 R ES009673
     K06S00B  C2006 09 17.21182 23 06 57.62 +18 13 12.8          18.7 V ES009703
     K06S00B 5C2006 09 17.21264 23 07 01.82 +18 12 10.6                 ES009673
     K06S00B 5C2006 09 17.22051 23 07 11.78 +18 06 18.1                 ES009673
     K06S00B  C2006 09 17.22479 23 07 13.70 +18 03 32.5                 ES009703
     K06S00B 5C2006 09 17.22537 23 07 17.93 +18 02 40.6                 ES009673
     K06S00B 5C2006 09 17.23418 23 07 29.01 +17 56 03.0                 ES009673
     K06S00B 5C2006 09 17.24134 23 07 38.10 +17 50 38.1                 ES009673
     K06S00B  C2006 09 17.25071 23 07 46.12 +17 43 52.5                 ES009703
     K06S00B  C2006 09 17.75348 23 21 45.06 +10 11 07.8          17.1 R ES009A50
     K06S00B  C2006 09 17.75446 23 21 46.73 +10 10 06.8          17.1 R ES009A50
     K06S00B  C2006 09 17.75544 23 21 48.45 +10 09 06.6          16.9 R ES009A50
     K06S00B  C2006 09 17.89377623 26 02.59 +07 40 27.3          17.6 R ES009J95
     K06S00B  C2006 09 17.89984623 26 13.56 +07 33 40.7          17.5 R ES009J95
     K06S00B  C2006 09 17.90389923 26 20.87 +07 29 07.7          17.3 R ES009J95

Observer details:
651 Grasslands Observatory, Tucson.  Observer J. E. McGaha.  0.62-m f/5.1
    Newtonian reflector + CCD.
673 Table Mountain Observatory, Wrightwood.  Observer J. Young.  0.61-m f/16
    Cassegrain + CCD.
703 Catalina Sky Survey.  Observers E. J. Christensen, A. R. Gibbs.  Measurers
    E. C. Beshore, E. J. Christensen, G. J. Garradd, A. R. Gibbs, A. D. Grauer,
    R. E. Hill, R. A. Kowalski, S. M. Larson, R. H. McNaught.  0.68-m Schmidt
    + CCD.
932 John J. McCarthy Obs., New Milford.  Observers K. Robson, W. Cloutier.
    Measurers K. Robson, M. Robson.  0.4-m f/6.5 Schmidt-Cassegrain + CCD.
941 Observatorio Pla D'Arguines.  Observers R. Ferrando, M. Ferrando.
    Measurer R. Ferrando.  0.36-m f/10 Schmidt-Cassegrain + CCD.
A50 Andrushivka Astronomical Observatory.  Observers O. Gerashchenko,
    Y. Ivashchenko.  0.6-m reflector + CCD.
J95 Great Shefford.  Observer P. Birtwhistle.  0.40-m f/6.0 Schmidt-Cassegrain
    + CCD.

Orbital elements:
2006 SB                                                  Earth MOID = 0.0098 AU
Epoch 2006 Sept. 22.0 TT = JDT 2454000.5                MPC
M 318.54192              (2000.0)            P               Q
n   0.79713442     Peri.  243.31432     +0.51934289     -0.85424778
a   1.1519890      Node   175.19879     +0.84906398     +0.51271583
e   0.1985398      Incl.   16.17579     +0.09681593     +0.08592561
P   1.24           H   25.8           G   0.15           U   6
Residuals in seconds of arc
060916 703  0.0   0.5+    060916 941  1.0-  0.4+    060917 673  0.2-  0.2-
060916 703  0.5-  0.6+    060916 941  0.8-  0.3+    060917 703  0.6-  0.0
060916 703  0.3+  0.4-    060917 932  0.3+  0.4-    060917 673  0.1-  0.6+
060916 703  0.4+  0.1+    060917 932  0.2-  0.3+    060917 673  0.9-  0.6+
060916 703  0.1-  0.0     060917 932  0.0   0.1+    060917 673  0.3-  0.7+
060916 703  0.4-  0.2-    060917 932  0.3+  0.1-    060917 703  0.3-  1.0-
060916 703  1.0+  0.2+    060917 932  0.4+  0.5-    060917 A50  0.7+  0.8+
060916 703  0.2+  0.7-    060917 651  0.0   0.0     060917 A50  0.5+  0.1+
060916 703  0.0   0.3+    060917 651  0.3+  0.1-    060917 A50  0.9+  0.2+
060916 703  0.1+  0.1+    060917 651  0.0   0.1+    060917 J95  0.3-  0.1+
060916 703  0.1+  0.0     060917 673 (2.4+  6.2-)   060917 J95  0.1+  0.2+
060916 941  0.1-  0.2-    060917 703  1.0+  1.6-    060917 J95  0.0   0.4-
060916 941  0.0   0.2-    060917 673  0.2-  0.4+

Ephemeris:
2006 SB                  a,e,i = 1.15, 0.20, 16                  q = 0.9233
Date    TT    R. A. (2000) Decl.     Delta      r     Elong.  Phase     V
2006 09 12    22 08.82   +41 47.3    0.0421   1.035   131.1    47.1    20.8
2006 09 13    22 14.40   +40 05.7    0.0366   1.032   133.2    45.3    20.4
2006 09 14    22 21.53   +37 45.7    0.0312   1.029   136.0    42.8    20.0
2006 09 15    22 30.90   +34 23.8    0.0260   1.026   139.9    39.2    19.5
2006 09 16    22 43.66   +29 14.8    0.0209   1.023   145.7    33.6    18.8
2006 09 17    23 01.84   +20 45.5    0.0161   1.020   155.2    24.4    18.0
2006 09 18    23 29.28   +05 47.7    0.0121   1.017   171.6     8.3    16.8
2006 09 19    00 13.49   -19 09.7    0.00993  1.014   161.1    18.7    16.8
2006 09 20    01 27.62   -46 45.7    0.0106   1.011   129.6    49.9    17.8
2006 09 21    03 18.53   -62 21.2    0.0138   1.008   107.5    71.7    19.0
2006 09 22    05 10.66   -66 39.7    0.0182   1.006    94.9    84.1    20.1
2006 09 23    06 26.50   -66 22.8    0.0231   1.003    87.4    91.3    20.9
2006 09 24    07 11.77   -65 02.4    0.0282   1.000    82.5    95.9    21.5
2006 09 25    07 39.83   -63 39.9    0.0335   0.997    79.2    98.9    22.0
2006 09 26    07 58.45   -62 28.1    0.0389   0.995    76.9   101.0    22.4
2006 09 27    08 11.59   -61 27.7    0.0443   0.992    75.1   102.5    22.8
2006 09 28    08 21.33   -60 37.0    0.0497   0.989    73.7   103.6    23.1
2006 09 29    08 28.85   -59 54.1    0.0551   0.987    72.6   104.4    23.3
2006 09 30    08 34.86   -59 17.3    0.0606   0.984    71.7   105.0    23.6
2006 10 01    08 39.79   -58 45.3    0.0660   0.982    70.9   105.4    23.8
2006 10 02    08 43.94   -58 17.3    0.0715   0.979    70.3   105.8    24.0

Gareth V. Williams           (C) Copyright 2006 MPC           M.P.E.C. 2006-S09

Read MPEC 2006-S08 Read MPEC 2006-S10


Our Web policy. Index to the CBAT/MPC/ICQ pages.


Valid HTML 4.01!